{"data":{"norad_id":64617,"epoch":"2026-05-24T18:37:03.616320Z","epoch_age_seconds":97860,"freshness":"FRESH","line1":"1 64617U 25137Z   26144.77573630  .00028237  00000+0  84379-3 0  9992","line2":"2 64617  53.1624 328.8427 0000427  81.8335 278.2716 15.34396233 52663","mean_motion":15.34396233,"eccentricity":4.27e-5,"inclination_deg":53.1624,"raan_deg":328.8427,"arg_perigee_deg":81.8335,"mean_anomaly_deg":278.2716,"bstar":0.00084379,"rev_number":5266,"period_min":93.847988481082,"perigee_km":462.42233219153,"apogee_km":463.00654090421,"semimajor_km":6840.8514365479,"source":"CELESTRAK","updated_at":"2026-05-25T13:38:20.499063Z"}}